Regional Weather Roundup
Issued by NWS

Home | Current Version | Previous Version | Text Only | Print | Product List | Glossary Off
Versions: 1 2 3 4 5 6 7 8 9 10 11 12 13 14 15 16 17 18 19 20 21 22 23 24 25 26 27

000
ASUS45 KBOI 240910
RWRID

IDAHO REGIONAL WEATHER ROUNDUP
NATIONAL WEATHER SERVICE BOISE ID
300 AM MDT SUN JUL 24 2016

NOTE: "FAIR" INDICATES FEW OR NO CLOUDS BELOW 12000 FEET
WITH NO SIGNIFICANT WEATHER AND/OR OBSTRUCTIONS TO VISIBILITY

IDZ012-014-241000-
SOUTHWEST IDAHO


CITY           SKY/WX    TMP DP  RH WIND       PRES   REMARKS
BOISE          CLEAR     64  38  38 CALM      30.05S
CALDWELL       NOT AVBL
MOUNTAIN HOME  CLEAR     63  32  31 W8        30.05S
$$

IDZ016-017-241000-
SOUTHCENTRAL IDAHO


CITY           SKY/WX    TMP DP  RH WIND       PRES   REMARKS
BURLEY         CLEAR     51  37  58 S6        30.11R
JEROME         CLEAR     60  32  34 S7        30.11S
TWIN FALLS     CLEAR     62  25  24 S13       30.11S
$$

IDZ019>023-241000-
SOUTHEAST IDAHO


CITY           SKY/WX    TMP DP  RH WIND       PRES   REMARKS
IDAHO FALLS    CLEAR     60  33  36 S14       30.13S
POCATELLO      CLEAR     64  24  21 SW9       30.14R
REXBURG        CLEAR     60  30  32 N6        30.13S
$$

IDZ006-010-011-018-031-032-241000-
CENTRAL IDAHO MOUNTAINS


CITY           SKY/WX    TMP DP  RH WIND       PRES   REMARKS
MCCALL         CLEAR     54  41  61 NW8       30.20S
HAILEY         CLEAR     55  32  41 NW9       30.17S
STANLEY          N/A     41  30  65 CALM      30.29R
SALMON         CLEAR     57  39  51 CALM      30.16S
CHALLIS        CLEAR     58  36  43 NW7       30.19S
$$

IDZ002-004-006-007-026-241000-
NORTHERN IDAHO


CITY           SKY/WX    TMP DP  RH WIND       PRES   REMARKS
LEWISTON       CLEAR     62  42  47 SE3       30.08F
LOWELL           N/A     57  50  77 CALM      30.15S
COEUR D`ALENE  CLEAR     54  46  76 NE5       30.11S
MULLAN PASS    CLEAR     50  40  68 NW5       30.25F
$$




USA.gov is the U.S. government's official web portal to all federal, state and local government web resources and services.